1505869201.09,35537,13.88,73278.8,0.47,-0.11,-0.15,0,*4D
1505869202.29,35538,13.88,73278.0,0.47,-0.15,-0.15,0,*46
1505869203.47,35539,13.88,73276.3,0.45,-0.15,-0.11,0,*41
1505869204.65,35540,13.88,73278.3,0.45,-0.15,-0.11,0,*4F
1505869205.85,35541,13.88,73282.0,0.47,-0.11,-0.11,0,*48
1505869207.06,35542,13.88,73278.3,0.47,-0.11,-0.11,0,*4B
1505869208.24,35543,13.88,73280.0,0.45,-0.11,-0.11,0,*48
1505869209.42,35544,13.88,73278.8,0.45,-0.15,-0.11,0,*4B
1505869210.63,35545,13.88,73278.3,0.47,-0.11,-0.11,0,*4C
1505869211.83,35546,13.88,73278.3,0.47,-0.15,-0.11,0,*4B
1505869213.03,35547,13.88,73278.8,0.47,-0.11,-0.15,0,*4A
1505869214.23,35548,13.88,73280.0,0.47,-0.11,-0.03,0,*72
1505869215.44,35549,13.88,73276.8,0.47,-0.11,-0.11,0,*40
1505869216.62,35550,13.88,73276.0,0.45,-0.11,-0.11,0,*4A
1505869217.82,35551,13.88,73276.8,0.47,-0.11,-0.11,0,*49
1505869219.02,35552,13.88,73278.0,0.47,-0.15,-0.03,0,*7D
1505869220.22,35553,13.88,73274.8,0.47,-0.11,-0.11,0,*4B
1505869221.43,35554,13.88,73278.8,0.47,-0.15,-0.11,0,*48
1505869222.63,35555,13.88,73278.3,0.47,-0.11,-0.11,0,*4D
1505869223.81,35556,13.88,73276.8,0.45,-0.15,-0.11,0,*48
1505869224.99,35557,13.88,73274.5,0.45,-0.11,-0.15,0,*49
1505869226.2,35558,13.88,73272.8,0.47,-0.11,-0.11,0,*40
1505869227.38,35559,13.88,73274.3,0.45,-0.11,-0.11,0,*43
1505869228.56,35560,13.88,73272.8,0.45,-0.11,-0.15,0,*4D
1505869229.73,35561,13.88,73276.8,0.45,-0.11,-0.03,0,*7B
1505869230.92,35562,13.88,73278.5,0.45,-0.11,-0.11,0,*4B
1505869232.1,35563,13.88,73278.3,0.45,-0.11,-0.15,0,*4E
1505869233.28,35564,13.88,73276.5,0.45,-0.11,-0.11,0,*4D
1505869234.48,35565,13.88,73276.0,0.47,-0.15,-0.11,0,*4A
1505869235.66,35566,13.88,73276.5,0.45,-0.11,-0.11,0,*4F
1505869236.85,35567,13.88,73274.8,0.45,-0.11,-0.11,0,*4E
1505869238.01,35568,13.88,73274.3,0.45,-0.03,-0.03,0,*41
1505869239.19,35569,13.88,73272.3,0.45,-0.15,-0.15,0,*40
1505869240.37,35570,13.88,73272.8,0.45,-0.11,-0.11,0,*48
1505869241.55,35571,13.88,73274.8,0.45,-0.11,-0.11,0,*49
1505869242.73,35572,13.88,73276.5,0.45,-0.15,-0.11,0,*4E
1505869243.94,35573,13.88,73274.0,0.47,-0.11,-0.11,0,*49
1505869245.12,35574,13.88,73272.0,0.45,-0.15,-0.11,0,*48
1505869246.32,35575,13.88,73278.3,0.47,-0.11,-0.15,0,*4B
1505869247.52,35576,13.88,73272.5,0.47,-0.11,-0.03,0,*7F
1505869248.72,35577,13.88,73274.3,0.47,-0.11,-0.11,0,*4D
1505869249.93,35578,13.88,73272.8,0.47,-0.11,-0.11,0,*42
1505869251.11,35579,13.94,73278.8,0.45,-0.11,-0.11,0,*41
1505869252.32,35580,13.88,73272.3,0.47,-0.15,-0.11,0,*41
1505869253.48,35581,13.88,73274.0,0.45,-0.15,-0.03,0,*71
1505869254.67,35582,13.88,73274.5,0.45,-0.11,-0.11,0,*45
1505869255.87,35583,13.88,73272.0,0.47,-0.11,-0.11,0,*46
1505869257.05,35584,13.88,73274.8,0.45,-0.11,-0.03,0,*70
1505869258.25,35585,13.88,73274.0,0.47,-0.11,-0.11,0,*40
1505869259.42,35586,13.88,73274.0,0.45,-0.11,-0.03,0,*72
1505869260.61,35587,13.88,73272.5,0.45,-0.11,-0.11,0,*40
1505869261.79,35588,13.88,73274.0,0.45,-0.11,-0.11,0,*4F
1505869262.97,35589,13.88,73272.3,0.45,-0.11,-0.11,0,*4E
1505869264.14,35590,13.88,73274.0,0.45,-0.15,-0.03,0,*71
1505869265.34,35591,13.88,73272.8,0.47,-0.11,-0.11,0,*45
1505869266.53,35592,13.88,73272.5,0.45,-0.11,-0.11,0,*44
1505869267.7,35593,13.88,73270.5,0.45,-0.11,-0.03,0,*76
1505869268.89,35594,13.88,73272.8,0.47,-0.15,-0.03,0,*77
1505869270.1,35595,13.88,73274.8,0.47,-0.11,-0.11,0,*41
1505869271.28,35596,13.88,73272.0,0.45,-0.11,-0.11,0,*40
1505869272.46,35597,13.88,73272.0,0.45,-0.11,-0.11,0,*41
1505869273.64,35598,13.88,73270.5,0.45,-0.15,-0.11,0,*4A
1505869274.82,35599,13.88,73270.8,0.45,-0.11,-0.15,0,*4B
1505869276.0,35600,13.88,73274.8,0.45,-0.15,-0.11,0,*48
1505869277.18,35601,13.88,73274.5,0.45,-0.11,-0.11,0,*4D
1505869278.35,35602,13.88,73272.5,0.45,-0.15,-0.03,0,*79
1505869279.53,35603,13.88,73272.8,0.45,-0.11,-0.11,0,*4F
1505869280.72,35604,13.88,73270.5,0.45,-0.11,-0.11,0,*48
1505869281.89,35605,13.88,73272.8,0.45,-0.15,-0.11,0,*4D
1505869283.1,35606,13.88,73274.0,0.47,-0.11,-0.15,0,*4C
1505869284.31,35607,13.88,73270.8,0.47,-0.11,-0.11,0,*49
1505869285.51,35608,13.88,73272.3,0.47,-0.11,-0.15,0,*42
1505869286.69,35609,13.88,73274.5,0.45,-0.11,-0.11,0,*45
1505869287.88,35610,13.88,73266.5,0.45,-0.11,-0.11,0,*4D
1505869289.08,35611,13.88,73268.8,0.47,-0.11,-0.11,0,*4E
1505869290.26,35612,13.88,73268.0,0.45,-0.11,-0.15,0,*4B
1505869291.44,35613,13.88,73268.3,0.45,-0.11,-0.15,0,*4A
1505869292.62,35614,13.88,73270.0,0.45,-0.15,-0.11,0,*4D
1505869293.83,35615,13.88,73270.3,0.47,-0.11,-0.11,0,*4A
1505869295.03,35616,13.88,73270.3,0.47,-0.11,-0.11,0,*49
1505869296.24,35617,13.88,73268.0,0.47,-0.15,-0.11,0,*4C
1505869297.41,35618,13.88,73270.3,0.45,-0.15,-0.15,0,*45
1505869298.61,35619,13.88,73270.0,0.47,-0.11,-0.03,0,*75
1505869299.79,35620,13.88,73270.3,0.45,-0.11,-0.11,0,*4E
1505869301.0,35621,13.88,73270.5,0.47,-0.11,-0.11,0,*4D
1505869302.18,35622,13.88,73270.8,0.45,-0.11,-0.11,0,*4C
1505869303.36,35623,13.88,73268.5,0.45,-0.03,-0.11,0,*7E
1505869304.56,35624,13.88,73268.3,0.47,-0.11,-0.15,0,*4C
1505869305.74,35625,13.88,73270.0,0.45,-0.11,-0.11,0,*4B
1505869306.93,35626,13.88,73268.8,0.45,-0.11,-0.11,0,*48
1505869308.11,35627,13.88,73266.5,0.45,-0.11,-0.15,0,*4D
1505869309.29,35628,13.88,73268.8,0.45,-0.11,-0.11,0,*46
1505869310.49,35629,13.88,73268.3,0.47,-0.15,-0.11,0,*41
1505869311.67,35630,13.88,73270.8,0.45,-0.11,-0.11,0,*4F
1505869312.88,35631,13.88,73270.5,0.47,-0.11,-0.11,0,*4C
1505869314.06,35632,13.88,73272.0,0.45,-0.15,-0.11,0,*49
1505869315.26,35633,13.88,73264.8,0.47,-0.11,-0.11,0,*4E
1505869316.44,35634,13.88,73270.5,0.45,-0.15,-0.11,0,*4F
1505869317.62,35635,13.88,73270.0,0.45,-0.11,-0.11,0,*4A
1505869318.79,35636,13.88,73268.5,0.45,-0.03,-0.03,0,*49
1505869319.96,35637,13.88,73268.8,0.45,-0.11,-0.03,0,*7B
1505869321.14,35638,13.88,73268.8,0.45,-0.11,-0.11,0,*47
1505869322.34,35639,13.88,73268.5,0.47,-0.11,-0.03,0,*77
1505869323.52,35640,13.88,73268.0,0.45,-0.11,-0.11,0,*48
1505869324.69,35641,13.88,73270.0,0.45,-0.15,-0.03,0,*7E
1505869325.89,35642,13.88,73270.0,0.47,-0.11,-0.03,0,*7B
1505869327.06,35643,13.88,73268.8,0.45,-0.11,-0.03,0,*78
1505869328.24,35644,13.88,73270.5,0.45,-0.15,-0.11,0,*48
1505869329.41,35645,13.88,73266.8,0.45,-0.11,-0.03,0,*7E
1505869330.59,35646,13.88,73264.5,0.45,-0.15,-0.11,0,*4A
1505869331.8,35647,13.88,73264.8,0.47,-0.11,-0.15,0,*49
1505869332.97,35648,13.88,73266.8,0.45,-0.15,-0.15,0,*40
1505869334.16,35649,13.88,73268.0,0.45,-0.11,-0.11,0,*41
1505869335.33,35650,13.88,73270.3,0.45,-0.03,-0.11,0,*7A
1505869336.51,35651,13.88,73270.0,0.45,-0.03,-0.11,0,*7B
1505869337.69,35652,13.88,73270.5,0.45,-0.11,-0.11,0,*4B
1505869338.87,35653,13.88,73266.5,0.45,-0.11,-0.11,0,*4A
1505869340.05,35654,13.88,73266.0,0.45,-0.11,-0.15,0,*49
1505869341.23,35655,13.88,73270.8,0.45,-0.15,-0.11,0,*48
1505869342.41,35656,13.88,73264.3,0.45,-0.11,-0.15,0,*4B
1505869343.58,35657,13.88,73266.8,0.45,-0.11,-0.03,0,*7D
1505869344.76,35658,13.88,73266.5,0.45,-0.11,-0.03,0,*72
1505869345.94,35659,13.88,73268.3,0.45,-0.11,-0.11,0,*40
1505869347.12,35660,13.88,73266.0,0.45,-0.11,-0.11,0,*4A
1505869348.3,35661,13.88,73266.5,0.45,-0.11,-0.11,0,*4B
1505869349.47,35662,13.88,73264.3,0.45,-0.11,-0.03,0,*7B
1505869350.68,35663,13.88,73266.8,0.47,-0.11,-0.11,0,*4B
1505869351.85,35664,13.88,73266.0,0.45,-0.11,-0.03,0,*7D
1505869353.04,35665,13.88,73266.8,0.45,-0.11,-0.11,0,*4F
1505869354.22,35666,13.88,73266.0,0.45,-0.11,-0.11,0,*4C
1505869355.42,35667,13.88,73268.0,0.47,-0.11,-0.11,0,*4F
1505869356.61,35668,13.88,73270.5,0.45,-0.11,-0.11,0,*42
1505869357.8,35669,13.88,73264.0,0.47,-0.11,-0.03,0,*72
1505869359.01,35670,13.88,73264.8,0.47,-0.11,-0.15,0,*4D
1505869360.18,35671,13.88,73262.8,0.45,-0.11,-0.03,0,*79
1505869361.36,35672,13.88,73264.0,0.45,-0.11,-0.11,0,*49
1505869362.57,35673,13.88,73266.3,0.47,-0.11,-0.11,0,*4A
1505869363.75,35674,13.88,73266.3,0.45,-0.15,-0.11,0,*4B
1505869364.93,35675,13.88,73264.3,0.45,-0.11,-0.15,0,*4A
1505869366.1,35676,13.88,73266.3,0.45,-0.11,-0.03,0,*7E
1505869367.28,35677,13.88,73266.5,0.45,-0.11,-0.15,0,*48
1505869368.46,35678,13.88,73266.5,0.45,-0.11,-0.15,0,*47
1505869369.64,35679,13.88,73266.3,0.45,-0.11,-0.11,0,*42
1505869370.82,35680,13.88,73264.5,0.43,-0.15,-0.19,0,*4E
1505869371.98,35681,13.88,73262.5,0.45,-0.15,-0.03,0,*72
1505869373.16,35682,13.88,73260.5,0.45,-0.11,-0.03,0,*75
1505869374.34,35683,13.88,73264.0,0.45,-0.11,-0.11,0,*47
1505869375.52,35684,13.88,73264.8,0.45,-0.11,-0.11,0,*40
1505869376.7,35685,13.88,73264.8,0.45,-0.11,-0.15,0,*45
1505869377.88,35686,13.88,73262.3,0.45,-0.11,-0.11,0,*42
1505869379.07,35687,13.88,73262.0,0.45,-0.11,-0.11,0,*43
1505869380.25,35688,13.88,73262.3,0.45,-0.11,-0.11,0,*4C
1505869381.45,35689,13.88,73264.0,0.47,-0.15,-0.11,0,*4B
1505869382.62,35690,13.88,73266.3,0.45,-0.11,-0.03,0,*76
1505869383.79,35691,13.88,73260.8,0.45,-0.15,-0.03,0,*73
1505869384.98,35692,13.88,73260.5,0.47,-0.03,-0.03,0,*45
1505869386.16,35693,13.88,73266.3,0.45,-0.11,-0.03,0,*75
1505869387.33,35694,13.88,73262.8,0.45,-0.11,-0.03,0,*72
1505869388.51,35695,13.88,73262.0,0.45,-0.11,-0.11,0,*40
1505869389.69,35696,13.88,73260.5,0.45,-0.11,-0.11,0,*43
1505869390.87,35697,13.88,73266.5,0.45,-0.11,-0.11,0,*42
1505869392.06,35698,13.88,73262.0,0.45,-0.11,-0.11,0,*4D
1505869393.24,35699,13.88,73262.5,0.45,-0.11,-0.11,0,*4C
1505869394.42,35700,13.88,73262.5,0.45,-0.11,-0.11,0,*4D
1505869395.63,35701,13.88,73262.0,0.47,-0.11,-0.11,0,*4E
1505869396.81,35702,13.88,73260.5,0.45,-0.11,-0.11,0,*4F
1505869398.02,35703,13.88,73262.8,0.47,-0.11,-0.11,0,*4C
1505869399.22,35704,13.88,73262.3,0.47,-0.11,-0.11,0,*4B
1505869400.4,35705,13.88,73266.8,0.45,-0.15,-0.11,0,*4C
1505869401.57,35706,13.88,73260.3,0.43,-0.19,-0.15,0,*41
1505869402.76,35707,13.88,73262.0,0.45,-0.11,-0.11,0,*4A
1505869403.94,35708,13.88,73264.3,0.45,-0.15,-0.11,0,*41
1505869405.11,35709,13.88,73260.8,0.45,-0.15,-0.11,0,*40
1505869406.32,35710,13.88,73264.0,0.47,-0.11,-0.11,0,*4E
1505869407.5,35711,13.88,73256.5,0.45,-0.11,-0.11,0,*4D
1505869408.68,35712,13.88,73262.3,0.45,-0.11,-0.11,0,*4E
1505869409.87,35713,13.88,73262.5,0.45,-0.11,-0.11,0,*4F
1505869411.05,35714,13.88,73260.3,0.45,-0.11,-0.11,0,*48
1505869412.23,35715,13.88,73262.8,0.45,-0.11,-0.11,0,*49
1505869413.41,35716,13.88,73260.8,0.45,-0.11,-0.11,0,*4A
1505869414.58,35717,13.88,73260.0,0.43,-0.15,-0.15,0,*4D
1505869415.76,35718,13.88,73260.5,0.43,-0.15,-0.15,0,*42
1505869416.93,35719,13.88,73262.0,0.43,-0.07,-0.15,0,*70
1505869418.12,35720,13.88,73260.5,0.41,-0.15,-0.15,0,*4B
1505869419.29,35721,13.88,73256.5,0.43,-0.15,-0.15,0,*48
1505869420.47,35722,13.88,73260.0,0.43,-0.15,-0.15,0,*4B
1505869421.63,35723,13.88,73260.0,0.43,-0.15,-0.07,0,*79
1505869422.8,35724,13.88,73256.8,0.43,-0.15,-0.07,0,*7E
1505869423.98,35725,13.88,73260.0,0.45,-0.11,-0.11,0,*4A
1505869425.16,35726,13.88,73260.8,0.45,-0.15,-0.15,0,*49
1505869426.36,35727,13.88,73260.0,0.47,-0.15,-0.11,0,*4E
1505869427.54,35728,13.88,73258.8,0.45,-0.11,-0.11,0,*47
1505869428.72,35729,13.88,73260.8,0.45,-0.11,-0.11,0,*46
1505869429.93,35730,13.88,73258.5,0.47,-0.11,-0.11,0,*4C
1505869431.11,35731,13.88,73260.0,0.45,-0.11,-0.11,0,*4F
1505869432.28,35732,13.88,73260.8,0.45,-0.15,-0.03,0,*7B
1505869433.46,35733,13.88,73260.5,0.45,-0.11,-0.15,0,*49
1505869434.67,35734,13.88,73262.8,0.47,-0.11,-0.11,0,*48
1505869435.85,35735,13.88,73262.0,0.45,-0.15,-0.11,0,*4F
1505869437.02,35736,13.88,73260.0,0.43,-0.15,-0.15,0,*4E
1505869438.19,35737,13.88,73258.3,0.43,-0.15,-0.15,0,*4F
1505869439.37,35738,13.88,73256.3,0.43,-0.15,-0.15,0,*40
1505869440.54,35739,13.88,73260.5,0.43,-0.15,-0.15,0,*41
1505869441.72,35740,13.88,73262.3,0.45,-0.11,-0.11,0,*49
1505869442.9,35741,13.88,73256.3,0.45,-0.11,-0.11,0,*48
1505869444.08,35742,13.88,73256.0,0.45,-0.03,-0.11,0,*78
1505869445.25,35743,13.88,73258.3,0.45,-0.03,-0.11,0,*79
1505869446.43,35744,13.88,73256.3,0.45,-0.11,-0.11,0,*4D
1505869447.61,35745,13.88,73260.0,0.43,-0.15,-0.19,0,*46
1505869448.78,35746,13.88,73260.8,0.43,-0.15,-0.15,0,*49
1505869449.95,35747,13.88,73260.0,0.43,-0.15,-0.19,0,*44
1505869451.12,35748,13.88,73260.5,0.45,-0.11,-0.03,0,*72
1505869452.3,35749,13.88,73260.0,0.43,-0.11,-0.11,0,*46
1505869453.47,35750,13.88,73260.8,0.45,-0.11,-0.03,0,*7B
1505869454.65,35751,13.88,73260.3,0.45,-0.11,-0.11,0,*49
1505869455.84,35752,13.88,73260.8,0.45,-0.11,-0.11,0,*4A
1505869457.01,35753,13.88,73262.5,0.43,-0.15,-0.15,0,*4D
1505869458.18,35754,13.88,73258.8,0.43,-0.15,-0.15,0,*4A
1505869459.35,35755,13.88,73256.5,0.43,-0.15,-0.15,0,*4B
1505869460.53,35756,13.88,73262.5,0.43,-0.15,-0.15,0,*48
1505869461.69,35757,13.88,73260.8,0.43,-0.15,-0.07,0,*7A
1505869462.86,35758,13.88,73256.3,0.43,-0.07,-0.15,0,*75
1505869464.05,35759,13.88,73262.0,0.41,-0.15,-0.03,0,*72
1505869465.22,35760,13.88,73264.3,0.43,-0.19,-0.15,0,*41
1505869466.4,35761,13.88,73262.0,0.43,-0.15,-0.15,0,*4C
1505869467.59,35762,13.88,73258.0,0.41,-0.15,-0.15,0,*4D
1505869468.76,35763,13.88,73262.0,0.43,-0.15,-0.07,0,*7D
1505869469.92,35764,13.88,73258.3,0.43,-0.15,-0.07,0,*7A
1505869471.11,35765,13.88,73258.0,0.41,-0.15,-0.07,0,*79
1505869472.28,35766,13.88,73260.8,0.43,-0.15,-0.15,0,*4B
1505869473.46,35767,13.88,73260.5,0.43,-0.15,-0.15,0,*4A
1505869474.62,35768,13.88,73260.3,0.43,-0.15,-0.07,0,*76
1505869475.79,35769,13.88,73262.5,0.43,-0.15,-0.19,0,*48
1505869476.96,35770,13.88,73260.3,0.43,-0.15,-0.15,0,*4C
1505869478.13,35771,13.88,73262.3,0.43,-0.15,-0.07,0,*7E
1505869479.29,35772,13.88,73264.3,0.43,-0.15,-0.07,0,*7D
1505869480.46,35773,13.88,73256.5,0.43,-0.15,-0.07,0,*7C
1505869481.62,35774,13.88,73256.3,0.43,-0.15,-0.07,0,*7B
1505869482.82,35775,13.88,73258.5,0.41,-0.15,-0.19,0,*47
1505869483.99,35776,13.88,73260.0,0.43,-0.15,-0.15,0,*4A
1505869485.17,35777,13.88,73262.0,0.43,-0.19,-0.15,0,*47
1505869486.34,35778,13.88,73260.0,0.43,-0.19,-0.15,0,*48
1505869487.51,35779,13.88,73260.5,0.43,-0.15,-0.07,0,*76
1505869488.7,35780,13.88,73262.3,0.41,-0.15,-0.15,0,*41
1505869489.88,35781,13.88,73262.0,0.43,-0.15,-0.15,0,*42
1505869491.07,35782,13.88,73260.0,0.41,-0.15,-0.15,0,*43
1505869492.26,35783,13.88,73262.3,0.41,-0.15,-0.07,0,*71
1505869493.45,35784,13.88,73260.5,0.41,-0.19,-0.07,0,*7A
1505869494.62,35785,13.88,73262.3,0.43,-0.15,-0.07,0,*75
1505869495.78,35786,13.88,73260.8,0.43,-0.15,-0.07,0,*76
1505869496.98,35787,13.88,73260.5,0.41,-0.15,-0.15,0,*46
1505869498.15,35788,13.88,73260.3,0.43,-0.19,-0.15,0,*47
1505869499.35,35789,13.88,73262.3,0.41,-0.15,-0.15,0,*48
1505869500.54,35790,13.88,73262.5,0.41,-0.15,-0.07,0,*73
1505869501.7,35791,13.88,73260.5,0.43,-0.15,-0.07,0,*70
1505869502.88,35792,13.88,73262.8,0.43,-0.15,-0.15,0,*40
1505869504.07,35793,13.88,73262.0,0.41,-0.15,-0.15,0,*43
1505869505.24,35794,13.88,73264.0,0.43,-0.15,-0.15,0,*46
1505869506.42,35795,13.88,73264.3,0.43,-0.15,-0.15,0,*47
1505869507.59,35796,13.88,73258.8,0.43,-0.15,-0.15,0,*44
1505869508.79,35797,13.88,73262.5,0.41,-0.15,-0.15,0,*47
1505869509.95,35798,13.88,73262.8,0.43,-0.15,-0.07,0,*79
1505869511.12,35799,13.88,73262.8,0.43,-0.19,-0.07,0,*74
1505869512.32,35800,13.88,73262.3,0.41,-0.15,-0.15,0,*46
1505869513.49,35801,13.88,73266.3,0.43,-0.19,-0.15,0,*49
1505869514.69,35802,13.88,73262.5,0.41,-0.15,-0.15,0,*44
1505869515.86,35803,13.88,73260.5,0.43,-0.15,-0.15,0,*47
1505869517.05,35804,13.88,73262.8,0.41,-0.15,-0.07,0,*71
1505869518.22,35805,13.88,73262.3,0.43,-0.15,-0.15,0,*41
1505869519.4,35806,13.88,73264.5,0.43,-0.19,-0.15,0,*4E
1505869520.59,35807,13.88,73260.8,0.41,-0.15,-0.15,0,*41
1505869521.79,35808,13.88,73262.8,0.41,-0.15,-0.15,0,*4E
1505869522.95,35809,13.88,73260.3,0.43,-0.15,-0.07,0,*7E
1505869524.15,35810,13.94,73264.3,0.41,-0.19,-0.15,0,*4B
1505869525.34,35811,13.88,73262.5,0.41,-0.15,-0.07,0,*75
1505869526.54,35812,13.88,73264.0,0.41,-0.15,-0.15,0,*45
1505869527.73,35813,13.88,73262.0,0.41,-0.19,-0.07,0,*7B
1505869528.92,35814,13.88,73264.8,0.41,-0.15,-0.03,0,*74
1505869530.09,35815,13.88,73262.8,0.43,-0.15,-0.19,0,*4C
1505869531.28,35816,13.88,73264.3,0.41,-0.15,-0.19,0,*4D
1505869532.46,35817,13.88,73260.8,0.41,-0.07,-0.07,0,*40
1505869533.66,35818,13.88,73262.8,0.41,-0.15,-0.15,0,*4F
1505869534.85,35819,13.88,73262.8,0.41,-0.15,-0.07,0,*7D
1505869536.02,35820,13.88,73264.5,0.43,-0.15,-0.15,0,*46
1505869537.19,35821,13.88,73266.0,0.43,-0.15,-0.15,0,*47
1505869538.35,35822,13.88,73264.3,0.43,-0.07,-0.03,0,*40
1505869539.55,35823,13.88,73262.8,0.41,-0.15,-0.15,0,*47
1505869540.71,35824,13.88,73262.8,0.43,-0.15,-0.07,0,*71
1505869541.9,35825,13.88,73260.8,0.41,-0.07,-0.07,0,*41
1505869543.06,35826,13.88,73264.0,0.43,-0.15,-0.07,0,*73
1505869544.24,35827,13.88,73264.3,0.41,-0.07,-0.03,0,*47
1505869545.43,35828,13.88,73262.8,0.41,-0.15,-0.07,0,*7F
1505869546.62,35829,13.88,73260.3,0.41,-0.15,-0.07,0,*7E
1505869547.81,35830,13.88,73262.3,0.41,-0.15,-0.07,0,*76
1505869548.97,35831,13.88,73262.5,0.43,-0.15,-0.07,0,*75
1505869550.16,35832,13.88,73260.8,0.41,-0.15,-0.07,0,*74
1505869551.35,35833,13.94,73264.0,0.41,-0.15,-0.07,0,*75
1505869552.55,35834,13.88,73264.0,0.41,-0.15,-0.15,0,*41
1505869553.73,35835,13.88,73266.0,0.41,-0.07,-0.07,0,*40
1505869554.92,35836,13.88,73260.0,0.41,-0.15,-0.15,0,*43
1505869556.11,35837,13.88,73260.5,0.41,-0.15,-0.07,0,*71
1505869557.3,35838,13.88,73264.8,0.41,-0.07,-0.07,0,*4D
1505869558.49,35839,13.88,73264.3,0.41,-0.19,-0.07,0,*73
1505869559.67,35840,13.88,73260.8,0.41,-0.07,-0.07,0,*42
1505869560.83,35841,13.88,73262.5,0.43,-0.07,-0.07,0,*41
1505869562.01,35842,13.88,73264.5,0.41,-0.07,-0.07,0,*40
1505869563.17,35843,13.88,73262.8,0.43,-0.07,-0.03,0,*47
1505869564.35,35844,13.88,73260.5,0.41,-0.07,-0.03,0,*42
1505869565.54,35845,13.88,73262.3,0.41,-0.07,-0.07,0,*47
1505869566.7,35846,13.88,73262.5,0.43,-0.07,-0.07,0,*46
1505869567.88,35847,13.88,73262.0,0.41,-0.07,-0.03,0,*41
1505869569.04,35848,13.88,73264.0,0.43,-0.07,-0.03,0,*4C
1505869570.2,35849,13.88,73260.3,0.43,-0.07,-0.07,0,*49
1505869571.39,35850,13.88,73266.8,0.41,-0.15,-0.07,0,*70
1505869572.56,35851,13.88,73260.0,0.39,-0.19,-0.07,0,*72
1505869573.74,35852,13.88,73266.5,0.41,-0.15,-0.03,0,*76
1505869574.93,35853,13.94,73264.8,0.41,-0.15,-0.07,0,*73
1505869576.12,35854,13.88,73266.8,0.41,-0.07,-0.15,0,*74
1505869577.31,35855,13.88,73262.0,0.41,-0.07,-0.03,0,*42
1505869578.5,35856,13.88,73264.0,0.41,-0.15,-0.07,0,*76
1505869579.66,35857,13.88,73260.5,0.43,-0.15,-0.03,0,*71
1505869580.84,35858,13.88,73260.3,0.41,-0.03,-0.07,0,*4F
1505869582.03,35859,13.88,73264.3,0.41,-0.07,-0.07,0,*4A
1505869583.21,35860,13.88,73260.5,0.41,-0.07,-0.07,0,*40
1505869584.4,35861,13.88,73262.0,0.41,-0.15,-0.07,0,*72
1505869585.56,35862,13.88,73260.0,0.43,-0.07,-0.07,0,*40
1505869586.75,35863,13.88,73264.0,0.41,-0.07,-0.15,0,*70
1505869587.94,35864,13.88,73266.5,0.41,-0.07,-0.15,0,*77
1505869589.11,35865,13.88,73262.3,0.43,-0.07,-0.15,0,*74
1505869590.27,35866,13.88,73266.0,0.43,-0.03,-0.07,0,*40
1505869591.43,35867,13.88,73262.8,0.43,-0.07,-0.03,0,*41
1505869592.62,35868,13.88,73262.0,0.41,-0.07,-0.15,0,*7B
1505869593.81,35869,13.88,73260.5,0.41,-0.15,-0.07,0,*7A
1505869594.99,35870,13.94,73266.3,0.41,-0.15,-0.03,0,*76
1505869596.19,35871,13.94,73266.3,0.41,-0.19,-0.07,0,*7F
1505869597.37,35872,13.88,73262.0,0.41,-0.15,-0.07,0,*70
1505869598.56,35873,13.88,73266.8,0.41,-0.15,-0.07,0,*71
1505869599.73,35874,13.94,73264.3,0.43,-0.03,-0.15,0,*70
1505869600.91,35875,13.88,73260.0,0.41,-0.07,-0.03,0,*40
1505869602.1,35876,13.88,73258.8,0.41,-0.07,-0.03,0,*43
1505869603.28,35877,13.88,73262.3,0.41,-0.07,-0.07,0,*46
1505869604.47,35878,13.94,73268.3,0.41,-0.15,-0.07,0,*7A
1505869605.65,35879,13.88,73260.8,0.41,-0.07,-0.07,0,*48
1505869606.84,35880,13.94,73268.8,0.41,-0.03,-0.07,0,*4A
1505869608.02,35881,13.88,73262.0,0.41,-0.15,-0.03,0,*78
1505869609.21,35882,13.94,73264.0,0.41,-0.15,-0.07,0,*7F
1505869610.4,35883,13.94,73264.0,0.41,-0.15,-0.07,0,*7E
1505869611.59,35884,13.88,73260.0,0.41,-0.15,-0.07,0,*79
1505869612.78,35885,13.94,73266.3,0.41,-0.15,-0.07,0,*78
1505869613.96,35886,13.88,73264.8,0.41,-0.07,-0.07,0,*48
1505869615.15,35887,13.88,73266.8,0.41,-0.15,-0.07,0,*7A
1505869616.33,35888,13.88,73262.3,0.41,-0.07,-0.07,0,*46
1505869617.52,35889,13.94,73264.8,0.41,-0.15,-0.03,0,*70
1505869618.7,35890,13.88,73264.5,0.41,-0.07,-0.07,0,*4F
1505869619.88,35891,13.88,73266.5,0.41,-0.07,-0.07,0,*4E
1505869621.07,35892,13.88,73266.8,0.41,-0.07,-0.07,0,*4D
1505869622.25,35893,13.88,73264.8,0.41,-0.07,-0.07,0,*4C
1505869623.44,35894,13.88,73266.5,0.41,-0.15,-0.07,0,*78
1505869624.63,35895,13.88,73266.0,0.41,-0.07,-0.15,0,*79
1505869625.82,35896,13.88,73264.0,0.41,-0.15,-0.07,0,*7A
1505869627.0,35897,13.88,73264.0,0.41,-0.07,-0.07,0,*48
1505869628.18,35898,13.88,73262.3,0.41,-0.07,-0.07,0,*47
1505869629.37,35899,13.88,73266.3,0.41,-0.15,-0.03,0,*71
1505869630.56,35900,13.88,73262.8,0.41,-0.19,-0.03,0,*7C
1505869631.74,35901,13.88,73266.3,0.41,-0.07,-0.07,0,*46
1505869632.92,35902,13.88,73266.0,0.41,-0.07,-0.07,0,*45
1505869634.11,35903,13.88,73266.3,0.41,-0.07,-0.07,0,*44
1505869635.3,35904,13.94,73272.0,0.41,-0.15,-0.07,0,*70
1505869636.48,35905,13.88,73264.8,0.41,-0.07,-0.07,0,*42
1505869637.66,35906,13.88,73268.0,0.41,-0.07,-0.07,0,*41
1505869638.82,35907,13.88,73268.8,0.43,-0.07,-0.07,0,*42
1505869640.0,35908,13.88,73264.5,0.41,-0.07,-0.07,0,*4F
1505869641.19,35909,13.94,73268.3,0.41,-0.15,-0.07,0,*7D
1505869642.37,35910,13.88,73268.0,0.41,-0.07,-0.07,0,*46
1505869643.56,35911,13.88,73264.8,0.41,-0.15,-0.07,0,*74
1505869644.72,35912,13.88,73270.0,0.43,-0.07,-0.07,0,*46
1505869645.92,35913,13.88,73266.8,0.41,-0.15,-0.15,0,*45
1505869647.09,35914,13.88,73264.3,0.39,-0.11,-0.07,0,*7A
1505869648.27,35915,13.88,73268.3,0.39,-0.11,-0.11,0,*4C
1505869649.45,35916,13.88,73266.8,0.39,-0.11,-0.11,0,*4F
1505869650.63,35917,13.94,73270.3,0.39,-0.11,-0.11,0,*4E
1505869651.82,35918,13.88,73268.3,0.41,-0.03,-0.07,0,*4A
1505869653.0,35919,13.88,73264.5,0.41,-0.07,-0.07,0,*4F
1505869654.19,35920,13.88,73264.3,0.41,-0.03,-0.07,0,*41
1505869655.37,35921,13.88,73266.0,0.41,-0.15,-0.07,0,*77
1505869656.56,35922,13.88,73262.5,0.41,-0.07,-0.07,0,*47
1505869657.73,35923,13.88,73260.3,0.43,-0.19,-0.07,0,*7B
1505869658.9,35924,13.94,73264.8,0.43,-0.15,-0.15,0,*43
1505869660.09,35925,13.88,73262.0,0.41,-0.15,-0.07,0,*73
1505869661.25,35926,13.88,73264.3,0.43,-0.07,-0.07,0,*41
1505869662.42,35927,13.88,73264.0,0.43,-0.19,-0.15,0,*4C
1505869663.61,35928,13.88,73262.8,0.41,-0.15,-0.03,0,*7A
1505869664.8,35929,13.88,73268.0,0.41,-0.15,-0.15,0,*4C
1505869665.99,35930,13.88,73264.5,0.41,-0.15,-0.07,0,*77
1505869667.15,35931,13.94,73270.0,0.43,-0.07,-0.07,0,*47
1505869668.34,35932,13.88,73268.5,0.41,-0.15,-0.07,0,*75
1505869669.52,35933,13.94,73268.8,0.41,-0.07,-0.07,0,*47
1505869670.71,35934,13.88,73266.0,0.41,-0.07,-0.03,0,*44
1505869671.89,35935,13.88,73266.3,0.41,-0.07,-0.07,0,*41
1505869673.07,35936,13.88,73268.0,0.41,-0.07,-0.07,0,*42
1505869674.26,35937,13.94,73270.3,0.41,-0.15,-0.07,0,*70
1505869675.44,35938,13.88,73266.5,0.41,-0.07,-0.07,0,*4C
1505869676.63,35939,13.88,73264.5,0.41,-0.15,-0.03,0,*7A
1505869677.83,35940,13.94,73266.8,0.41,-0.15,-0.15,0,*43
1505869679.02,35941,13.88,73264.0,0.41,-0.15,-0.07,0,*71
1505869680.2,35942,13.94,73268.5,0.41,-0.15,-0.07,0,*72
1505869681.39,35943,13.94,73268.0,0.41,-0.15,-0.07,0,*73
1505869682.57,35944,13.88,73266.5,0.41,-0.07,-0.07,0,*47
1505869683.73,35945,13.88,73264.0,0.43,-0.07,-0.07,0,*44
1505869684.92,35946,13.88,73262.5,0.41,-0.15,-0.07,0,*76
1505869686.12,35947,13.88,73260.5,0.41,-0.15,-0.15,0,*44
1505869687.31,35948,13.88,73260.3,0.41,-0.15,-0.07,0,*78
1505869688.49,35949,13.88,73264.0,0.41,-0.07,-0.07,0,*4A
1505869689.67,35950,13.88,73264.0,0.41,-0.07,-0.07,0,*42
1505869690.86,35951,13.88,73264.0,0.41,-0.15,-0.03,0,*74
1505869692.05,35952,13.88,73262.3,0.41,-0.19,-0.03,0,*7B
1505869693.24,35953,13.94,73266.8,0.41,-0.15,-0.07,0,*72
1505869694.41,35954,13.88,73262.5,0.39,-0.15,-0.07,0,*7A
1505869695.6,35955,13.88,73262.8,0.41,-0.15,-0.15,0,*47
1505869696.8,35956,13.88,73262.3,0.41,-0.15,-0.15,0,*44
1505869698.0,35957,13.88,73266.5,0.41,-0.15,-0.15,0,*45